Multibeam Report for lophelia2010


Ship Name: Ronald H. Brown
Chief Scientist: Cordes, Erik
Temple University
Source Organization: National Oceanic and Atmospheric Administration (NOAA)
Start Date: 2010-10-14
End Date: 2010-11-04


View ISO Metadata

Visit the full NCEI Bathymetry Viewer


Multibeam Bathymetry

Cruise Details

Project:
Instrument: Kongsberg EM122

Data Quality

Number of Files: 56
Number of Records: 26445
BATHYMETRY DATA Quantity Percentage
Number of Beams 11424240 100%
Number of Good Beams 10845888 94.94%
Number of Zero Beams 0 0%
Number of Flagged Beams 578352 5.06%

Navigation Totals

Total Time: 25.3681 hours
Total Track Length: 373.6022 km
Average Speed: 14.727 km/hr (7.9519 knots)

Cruise Bounds

Northern Extent: 28.954494
Southern Extent: 27.674557
Western Extent: -92.24478
Eastern Extent: -87.29016

Limits

Minimum Sonar Depth 3.4115 Maximum Sonar Depth 7.1231
Minimum Altitude 335.4539 Maximum Altitude 2630.739
Minimum Depth 333.1436 Maximum Depth 2707.9641

File Information

Full Resolution Bathymetry as collected (raw): 51

Files File Size Description
0000_20101019_180114_RHB.all.mb58.gz 58.34MB Kongsberg multibeam vendor format
0000_20101023_000236_RHB.all.mb58.gz 85.40MB Kongsberg multibeam vendor format
0000_20101029_011256_RHB.all.mb58.gz 24.62MB Kongsberg multibeam vendor format
0000_20101030_163943_RHB.all.mb58.gz 99.83MB Kongsberg multibeam vendor format
0001_20101023_005256_RHB.all.mb58.gz 50.77MB Kongsberg multibeam vendor format
0001_20101029_013327_RHB.all.mb58.gz 21.49MB Kongsberg multibeam vendor format
0001_20101030_173939_RHB.all.mb58.gz 60.93MB Kongsberg multibeam vendor format
0002_20101023_012203_RHB.all.mb58.gz 90.14MB Kongsberg multibeam vendor format
0002_20101029_015141_RHB.all.mb58.gz 23.79MB Kongsberg multibeam vendor format
0002_20101030_183938_RHB.all.mb58.gz 55.70MB Kongsberg multibeam vendor format
0003_20101023_020713_RHB.all.mb58.gz 29.98MB Kongsberg multibeam vendor format
0003_20101029_021235_RHB.all.mb58.gz 13.99MB Kongsberg multibeam vendor format
0003_20101030_193945_RHB.all.mb58.gz 32.15MB Kongsberg multibeam vendor format
0004_20101023_022715_RHB.all.mb58.gz 73.23MB Kongsberg multibeam vendor format
0004_20101029_022459_RHB.all.mb58.gz 27.05MB Kongsberg multibeam vendor format
0004_20101030_201727_RHB.all.mb58.gz 15.85MB Kongsberg multibeam vendor format
0005_20101023_030243_RHB.all.mb58.gz 36.59MB Kongsberg multibeam vendor format
0005_20101029_024001_RHB.all.mb58.gz 11.79MB Kongsberg multibeam vendor format
0005_20101030_203454_RHB.all.mb58.gz 1.93MB Kongsberg multibeam vendor format
0006_20101023_032839_RHB.all.mb58.gz 57.84MB Kongsberg multibeam vendor format
0006_20101029_024638_RHB.all.mb58.gz 31.88MB Kongsberg multibeam vendor format
0007_20101029_030438_RHB.all.mb58.gz 67.73MB Kongsberg multibeam vendor format
0008_20101029_034327_RHB.all.mb58.gz 31.56MB Kongsberg multibeam vendor format
0009_20101029_040031_RHB.all.mb58.gz 35.20MB Kongsberg multibeam vendor format
0010_20101029_041841_RHB.all.mb58.gz 40.56MB Kongsberg multibeam vendor format
0011_20101029_043959_RHB.all.mb58.gz 29.02MB Kongsberg multibeam vendor format
0012_20101029_045604_RHB.all.mb58.gz 27.82MB Kongsberg multibeam vendor format
0013_20101029_051146_RHB.all.mb58.gz 82.05MB Kongsberg multibeam vendor format
0014_20101029_055612_RHB.all.mb58.gz 36.72MB Kongsberg multibeam vendor format
0015_20101029_061428_RHB.all.mb58.gz 112.50MB Kongsberg multibeam vendor format
0016_20101029_071036_RHB.all.mb58.gz 37.79MB Kongsberg multibeam vendor format
0017_20101029_072940_RHB.all.mb58.gz 111.68MB Kongsberg multibeam vendor format
0018_20101029_082939_RHB.all.mb58.gz 107.37MB Kongsberg multibeam vendor format
0019_20101029_092940_RHB.all.mb58.gz 70.16MB Kongsberg multibeam vendor format
0020_20101029_101010_RHB.all.mb58.gz 35.02MB Kongsberg multibeam vendor format
0021_20101029_103015_RHB.all.mb58.gz 104.48MB Kongsberg multibeam vendor format
0022_20101029_113011_RHB.all.mb58.gz 70.82MB Kongsberg multibeam vendor format
0023_20101029_123008_RHB.all.mb58.gz 15.58MB Kongsberg multibeam vendor format
0024_20101029_124237_RHB.all.mb58.gz 42.03MB Kongsberg multibeam vendor format
0025_20101029_131643_RHB.all.mb58.gz 29.66MB Kongsberg multibeam vendor format
0026_20101029_134029_RHB.all.mb58.gz 41.87MB Kongsberg multibeam vendor format
0027_20101029_141303_RHB.all.mb58.gz 54.89MB Kongsberg multibeam vendor format
0028_20101029_145646_RHB.all.mb58.gz 26.50MB Kongsberg multibeam vendor format
0029_20101029_151809_RHB.all.mb58.gz 78.85MB Kongsberg multibeam vendor format
0030_20101029_161805_RHB.all.mb58.gz 12.44MB Kongsberg multibeam vendor format
0031_20101029_162740_RHB.all.mb58.gz 26.27MB Kongsberg multibeam vendor format
0032_20101029_164627_RHB.all.mb58.gz 474.5KB Kongsberg multibeam vendor format
0033_20101030_135214_RHB.all.mb58.gz 65.93MB Kongsberg multibeam vendor format
0034_20101030_144840_RHB.all.mb58.gz 106.37MB Kongsberg multibeam vendor format
0035_20101030_154840_RHB.all.mb58.gz 28.77MB Kongsberg multibeam vendor format
9999all.mb58.gz 6.99MB Kongsberg multibeam vendor format

Metadata Files: 4

Files File Size Description
lophelia2010_Multibeam.xml NGDC created ISO metadata
Lophelia2010_COLLECTION_UNRESOLVED.xml 17.1KB XML metadata file
Lophelia2010_Multibeam_COLLECTION_UNRESOLVED.xml 14.8KB XML metadata file
Lophelia2010_WaterColumn_COLLECTION_UNRESOLVED.xml 14.9KB XML metadata file

Water Column Sonar Data

Water Column Sonar Data Available: WCSD Map Viewer